Content
SEND FEEDBACK

Daily
Averages
Monthly
Summary
Thailand

BANGKOK, THAILAND


Home > Asia > Thailand
Elevation: 66 feet     Latitude: 13 44N     Longitude: 100 34E

WEATHER
 
SELECT A DAY
Number of Records: 242,884;   Date Range: 7/1/96 - 10/20/14
 
SHARE

PRINT THIS DATA

[ ← Previous Day ]
WEATHER ALMANAC - JANUARY 24, 2013
[ Next Day → ]
[ °C ]   °F
Weather ElementAverageHighLow
Temperature84 °F93.2 °F (1:00 pm)78 °F (7:00 am)
Dewpoint74.9 °F78.8 °F (10:30 am)73 °F (7:00 am)
Humidity74.3 %89 % (8:30 am)47 % (1:00 pm)
Barometer29.88 in29.95 in (8:30 am)29.80 in (2:30 pm)
Wind Speed5 mph11.5 mph (3:00 pm)
Weather ElementAverage
Visibility3.8 mi
Wind DirectionSSE (170.4 °)

Weather ElementTotal
Precipitation---
Cooling Degree Days20.6 (Base 65)
Growing Degree Days35.6 (Base 50)
Averaged from 51 records on January 24, 2013
WEATHER CONDITIONS BREAKOUT
WIND DIRECTION BREAKOUT
WEATHER BY HOUR - JANUARY 24, 2013
[ °C ]   °F
Local TimeTemperatureDewpointHumidityBarometerVisibilityWind DirectionWind SpeedGust SpeedPrecipitationEventsConditions
12:30 AM80.6 °F73.4 °F79 %29.92 in3.7 miSW (230°)3.5 mph
1:00 AM81.0 °F74.0 °F73 %29.93 in3.0 miWSW (240°)4.6 mphMist
1:00 AM80.6 °F73.4 °F79 %29.92 in3.1 miWSW (240°)4.6 mphMist
1:30 AM80.6 °F73.4 °F79 %29.92 in3.1 miSW (230°)4.6 mphMist
2:00 AM80.6 °F75.2 °F84 %29.92 in3.1 miSW (230°)6.9 mphMist
2:30 AM80.6 °F75.2 °F84 %29.89 in3.1 miSW (230°)8.1 mphMist
3:00 AM80.6 °F75.2 °F84 %29.89 in3.1 miSW (230°)6.9 mphMist
3:30 AM78.8 °F73.4 °F83 %29.89 in3.1 miSSW (210°)4.6 mphMist
4:00 AM78.8 °F73.4 °F83 %29.89 in3.1 miSSW (210°)3.5 mphMist
4:30 AM78.8 °F73.4 °F83 %29.89 in3.1 miSSW (210°)4.6 mphMist
5:00 AM78.8 °F73.4 °F83 %29.89 in3.1 miSSW (210°)2.3 mphMist
5:30 AM78.8 °F73.4 °F83 %29.89 in3.1 miCalmMist
6:00 AM78.8 °F73.4 °F83 %29.89 in3.1 miCalmMist
6:30 AM78.8 °F73.4 °F83 %29.92 in2.5 miEast (90°)3.5 mphMostly Cloudy
7:00 AM78.0 °F73.0 °F81 %29.93 in2.0 miENE (60°)4.6 mphMist
7:00 AM78.8 °F73.4 °F83 %29.92 in2.5 miENE (60°)4.6 mphMostly Cloudy
7:30 AM78.8 °F73.4 °F83 %29.92 in2.5 miENE (60°)4.6 mphMostly Cloudy
8:00 AM80.6 °F75.2 °F84 %29.92 in1.9 miENE (60°)3.5 mphMostly Cloudy
8:30 AM80.6 °F77.0 °F89 %29.95 in0.9 miEast (80°)4.6 mphMostly Cloudy
9:00 AM80.6 °F77.0 °F89 %29.95 in0.9 miENE (70°)5.8 mphMostly Cloudy
9:30 AM82.4 °F77.0 °F84 %29.95 in1.2 miEast (100°)3.5 mphMostly Cloudy
10:00 AM84.2 °F77.0 °F79 %29.95 in1.9 miESE (110°)4.6 mphMostly Cloudy
10:30 AM87.8 °F78.8 °F75 %29.92 in3.1 miSouth (170°)4.6 mphMostly Cloudy
11:00 AM89.6 °F78.8 °F70 %29.92 in3.7 miSouth (190°)4.6 mphMostly Cloudy
11:30 AM89.6 °F77.0 °F66 %29.92 in3.7 miSSE (160°)3.5 mphMostly Cloudy
12:00 PM91.4 °F75.2 °F59 %29.89 in4.3 miSSE (150°)3.5 mphMostly Cloudy
12:30 PM91.4 °F73.4 °F55 %29.89 in4.3 miSouth (170°)4.6 mphMostly Cloudy
1:00 PM93.0 °F75.0 °F47 %29.88 in4.0 miSouth (180°)3.5 mphHaze
1:00 PM93.2 °F75.2 °F56 %29.86 in4.3 miSouth (180°)3.5 mphMostly Cloudy
1:30 PM93.2 °F75.2 °F56 %29.86 in4.3 miSouth (190°)3.5 mphMostly Cloudy
2:00 PM93.2 °F75.2 °F56 %29.83 in4.3 miSSW (210°)5.8 mphMostly Cloudy
2:30 PM91.4 °F73.4 °F55 %29.80 in5.0 miSouth (180°)5.8 mphMostly Cloudy
3:00 PM91.4 °F75.2 °F59 %29.80 in4.3 miSW (230°)11.5 mphRainLight Rain
3:30 PM89.6 °F75.2 °F62 %29.80 in5.0 miESE (120°)9.2 mphMostly Cloudy
4:00 PM89.6 °F77.0 °F66 %29.80 in4.3 miESE (120°)9.2 mphRain-ThunderstormLight Thunderstorms and Rain
4:30 PM84.2 °F75.2 °F74 %29.83 in3.1 miSSW (200°)11.5 mphRain-ThunderstormLight Thunderstorms and Rain
5:00 PM84.2 °F73.4 °F70 %29.80 in4.3 miWNW (300°)9.2 mphRainLight Rain
5:30 PM84.2 °F73.4 °F70 %29.80 in5.0 miEast (80°)4.6 mphMostly Cloudy
6:00 PM84.2 °F73.4 °F70 %29.80 in5.0 miWest (280°)3.5 mphMostly Cloudy
6:30 PM84.2 °F73.4 °F70 %29.83 in5.0 miSouth (180°)3.5 mphMostly Cloudy
7:00 PM85.0 °F76.0 °F68 %29.85 in5.0 miSouth (180°)3.5 mphMist
7:00 PM84.2 °F75.2 °F74 %29.83 in5.0 miSouth (180°)3.5 mphMostly Cloudy
7:30 PM84.2 °F75.2 °F74 %29.83 in5.0 miSSW (200°)6.9 mphMostly Cloudy
8:00 PM84.2 °F75.2 °F74 %29.86 in5.6 miSSW (210°)5.8 mphMostly Cloudy
8:30 PM84.2 °F75.2 °F74 %29.86 in5.6 miSW (220°)3.5 mphMostly Cloudy
9:00 PM82.4 °F75.2 °F79 %29.86 in5.6 miSW (230°)4.6 mphMostly Cloudy
9:30 PM82.4 °F75.2 °F79 %29.86 in5.6 miSW (220°)5.8 mphMostly Cloudy
10:00 PM82.4 °F75.2 °F79 %29.89 in5.6 miSouth (190°)5.8 mphMostly Cloudy
10:30 PM82.4 °F75.2 °F79 %29.89 in5.6 miSouth (190°)4.6 mphMostly Cloudy
11:00 PM82.4 °F75.2 °F79 %29.89 in5.6 miSSW (200°)3.5 mphMostly Cloudy
11:30 PM82.4 °F75.2 °F79 %29.86 in5.6 miSW (220°)8.1 mphMostly Cloudy
Hourly data recorded from VTBD, located miles away from Bangkok, Thailand







STORIES FROM OUR PARTNERS